Regional Weather Roundup
Issued by NWS

Home | Current Version | Previous Version | Text Only | Print | Product List | Glossary On
Versions: 1 2 3 4 5 6 7 8 9 10 11 12 13 14 15 16 17 18 19 20 21 22 23 24 25 26 27 28 29 30 31 32 33 34 35 36 37 38 39 40 41 42 43 44 45 46 47 48 49 50
000
ASUS43 KTOP 270608
RWRKS

WEATHER ROUNDUP FOR KANSAS
NATIONAL WEATHER SERVICE GOODLAND KS
1200 AM CST FRI FEB 27 2015

NOTE:  "FAIR" INDICATES FEW OR NO CLOUDS BELOW 12,000 FEET WITH NO
SIGNIFICANT WEATHER AND/OR OBSTRUCTIONS TO VISIBILITY.

KSZ001>006-013>018-027>032-041>047-270700-
NORTHWEST KANSAS

CITY           SKY/WX    TMP DP  RH WIND       PRES   REMARKS
GOODLAND       CLOUDY    14   4  64 SE13      30.32F WCI   0
6HR MIN TEMP:  14; 6HR MAX TEMP:  18; 6HR PCP: TRACE;

HAYS           MOCLDY    10  -8  44 E3        30.49R
HILL CITY      MOCLDY     8  -3  61 NE6       30.49
6HR MIN TEMP:   5; 6HR MAX TEMP:  21;

RUSSELL        PTCLDY     6  -2  69 E7        30.50
6HR MIN TEMP:   6; 6HR MAX TEMP:  20;

$$

KSZ061>065-074>080-084>089-270700-
SOUTHWEST KANSAS

CITY           SKY/WX    TMP DP  RH WIND       PRES   REMARKS
DODGE CITY     CLOUDY    16  -2  45 E9        30.43S
6HR MIN TEMP:  15; 6HR MAX TEMP:  21;

ELKHART          N/A     16   7  68 E8          N/A
GARDEN CITY    CLOUDY    16   0  49 E10       30.38F WCI   4
6HR MIN TEMP:  16; 6HR MAX TEMP:  20;

GREAT BEND     PTCLDY    12  -4  48 E5        30.51R
LIBERAL        CLOUDY    19   1  45 E9        30.39S
PRATT          CLOUDY    14   1  57 NE6       30.49S
$$

KSZ066>073-081>083-090>101-270700-
SOUTHEAST KANSAS

CITY           SKY/WX    TMP DP  RH WIND       PRES   REMARKS
CHANUTE        PTCLDY    13   1  59 N12       30.55F WCI  -1
6HR MIN TEMP:  13; 6HR MAX TEMP:  22;

COFFEYVILLE    MOCLDY    16   2  54 NE13      30.56  WCI   2
6HR MIN TEMP:  16; 6HR MAX TEMP:  24;

HUTCHINSON     CLEAR     10  -2  58 N3        30.53S
6HR MIN TEMP:  10; 6HR MAX TEMP:  21;

MEDICINE LODGE   N/A     17   1  49 NE7       30.51S
NEWTON         CLEAR      9  -2  61 NE7       30.54R
PARSONS        MOCLDY    15   2  56 N9G17     30.56
6HR MIN TEMP:  15; 6HR MAX TEMP:  24;

WICHITA INTL   CLEAR     14   0  53 NE13      30.54R WCI   0
6HR MIN TEMP:  14; 6HR MAX TEMP:  22;

WICHITA JABRA  CLEAR     11   1  64 NE7       30.54R
6HR MIN TEMP:  10; 6HR MAX TEMP:  19;

WINFIELD       PTCLDY    15   2  56 NE10      30.55R WCI   2
6HR MIN TEMP:  15; 6HR MAX TEMP:  23;

$$

KSZ007>012-019>026-033>040-048>060-102>105-270700-
NORTHEAST KANSAS

CITY           SKY/WX    TMP DP  RH WIND       PRES   REMARKS
CONCORDIA      CLEAR      4  -2  76 CALM      30.56S
6HR MIN TEMP:   3; 6HR MAX TEMP:  17;

EMPORIA        CLEAR      8   0  69 N10       30.55S WCI  -6
6HR MIN TEMP:   8; 6HR MAX TEMP:  19;

LAWRENCE       CLEAR      5  -2  72 N3        30.61R
6HR MIN TEMP:   5; 6HR MAX TEMP:  16;

MANHATTAN      CLEAR      7   1  76 CALM      30.59
6HR MIN TEMP:   6; 6HR MAX TEMP:  18;

MARYSVILLE     CLEAR      3   0  85 CALM      30.57S
OLATHE IND     FAIR       6  -3  66 N10       30.58R WCI  -9
6HR MIN TEMP:   6; 6HR MAX TEMP:  16;

OLATHE EXE     CLEAR      8  -3  61 N10       30.56R WCI  -6
6HR MIN TEMP:   8; 6HR MAX TEMP:  18;

SALINA         CLEAR     11   0  61 NE7       30.56S
6HR MIN TEMP:  11; 6HR MAX TEMP:  20;

TOPEKA BILLARD CLEAR      7  -1  70 N5        30.61S
6HR MIN TEMP:   7; 6HR MAX TEMP:  18;

TOPEKA FORBES  CLEAR      9  -1  64 N9        30.58R
6HR MIN TEMP:   9; 6HR MAX TEMP:  18;

$$


USA.gov is the U.S. government's official web portal to all federal, state and local government web resources and services.